DW1520 Weather Reports


Display with metric or nautical units.
time (UTC)temp
F
wind
direction
speed
MPH
gust
MPH
rain 1hr
in
rain 24hr
in
rain mn
in
humidity
%
barometer
mb
20260904015506 78 161 2.0 5.0 0.00 0.11 0.11 86 1006.2
20260904015006 78 169 3.0 6.0 0.00 0.11 0.11 86 1006.4
20260904014506 78 156 2.0 3.0 0.00 0.11 0.11 86 1006.4
20260904014006 78 156 3.0 8.0 0.00 0.11 0.11 86 1006.3
20260904013506 78 169 2.0 6.0 0.00 0.11 0.11 85 1006.2
20260904013006 79 167 3.0 5.0 0.00 0.11 0.11 85 1006.4
20260904012506 79 155 1.0 6.0 0.00 0.11 0.11 85 1006.4
20260904012006 79 161 2.0 7.0 0.00 0.11 0.11 85 1006.4
20260904011506 79 160 2.0 5.0 0.00 0.11 0.11 85 1006.5
20260904011007 79 160 2.0 5.0 0.00 0.11 0.11 84 1006.5
20260904010506 79 160 2.0 5.0 0.00 0.11 0.11 84 1006.6
20260904004507 80 156 1.0 8.0 0.00 0.11 0.11 83 1006.4
20260904004007 80 153 2.0 8.0 0.00 0.11 0.11 82 1006.3
20260904003506 80 175 1.0 3.0 0.00 0.11 0.11 82 1006.3
20260904003006 80 177 2.0 3.0 0.00 0.11 0.11 82 1006.3
20260904002506 80 165 3.0 7.0 0.00 0.11 0.11 81 1006.3
20260904001507 80 234 3.0 6.0 0.00 0.11 0.11 81 1006.3
20260904001007 80 148 2.0 6.0 0.00 0.11 0.11 80 1006.2
20260904000506 81 169 2.0 5.0 0.00 0.11 0.11 80 1006.0
20260903235506 81 168 2.0 6.0 0.00 0.11 0.11 80 1006.1
20260903235006 81 163 2.0 6.0 0.00 0.11 0.11 79 1006.0
20260903233506 81 163 2.0 6.0 0.00 0.11 0.11 78 1006.0
20260903233006 81 163 3.0 6.0 0.00 0.11 0.11 77 1006.1
20260903232506 81 159 1.0 5.0 0.00 0.11 0.11 77 1006.1
20260903232006 81 155 2.0 3.0 0.00 0.11 0.11 77 1006.2
20260903231506 81 155 1.0 6.0 0.00 0.11 0.11 77 1006.1
20260903231006 81 162 1.0 5.0 0.00 0.11 0.11 77 1006.2
20260903230506 82 160 1.0 5.0 0.00 0.11 0.11 77 1006.2
20260903230006 82 161 2.0 5.0 0.00 0.11 0.11 76 1006.2
20260903225506 82 166 3.0 5.0 0.00 0.11 0.11 76 1006.2
20260903225006 82 168 2.0 8.0 0.00 0.11 0.11 75 1006.0
20260903224506 82 174 3.0 9.0 0.00 0.11 0.11 75 1006.1
20260903224006 82 170 2.0 8.0 0.00 0.11 0.11 75 1006.1
20260903223506 82 180 2.0 8.0 0.00 0.11 0.11 74 1006.2
20260903223007 82 162 3.0 6.0 0.00 0.11 0.11 74 1006.1
20260903222506 82 173 2.0 5.0 0.00 0.11 0.11 75 1006.1
20260903222006 82 174 2.0 7.0 0.00 0.11 0.11 75 1006.1
20260903221506 82 163 3.0 7.0 0.00 0.11 0.11 74 1006.1
20260903220506 82 163 3.0 7.0 0.00 0.11 0.11 73 1005.9
20260903220006 82 175 2.0 7.0 0.00 0.11 0.11 73 1006.0
20260903215506 82 175 3.0 6.0 0.00 0.11 0.11 72 1006.0
20260903215006 83 150 2.0 13.0 0.00 0.11 0.11 73 1006.1
20260903214007 82 182 2.0 5.0 0.00 0.11 0.11 72 1006.2
20260903213507 83 202 3.0 5.0 0.00 0.11 0.11 72 1006.3
20260903213007 83 168 2.0 6.0 0.00 0.11 0.11 71 1006.4
20260903212506 83 150 3.0 8.0 0.00 0.11 0.11 71 1006.4
20260903212007 83 169 2.0 6.0 0.00 0.11 0.11 71 1006.5
20260903211506 83 146 2.0 10.0 0.00 0.11 0.11 72 1006.5
20260903210506 82 172 3.0 12.0 0.00 0.11 0.11 70 1006.2
20260903210006 83 166 4.0 9.0 0.00 0.11 0.11 69 1006.2
20260903205506 83 196 4.0 10.0 0.00 0.11 0.11 68 1006.1
20260903205006 83 187 4.0 10.0 0.00 0.11 0.11 68 1006.1
20260903204506 83 175 4.0 12.0 0.00 0.11 0.11 68 1006.4
20260903204006 83 166 4.0 9.0 0.00 0.11 0.11 68 1006.1
20260903203506 83 180 4.0 12.0 0.00 0.11 0.11 68 1006.1
20260903203006 83 186 4.0 10.0 0.00 0.11 0.11 68 1006.3
20260903202506 83 179 5.0 12.0 0.00 0.11 0.11 67 1006.5
20260903202006 83 185 3.0 9.0 0.00 0.11 0.11 69 1006.8
20260903201506 83 172 3.0 7.0 0.00 0.11 0.11 69 1006.8
20260903201006 83 171 2.0 6.0 0.00 0.11 0.11 70 1006.7
20260903200506 82 156 2.0 7.0 0.00 0.11 0.11 70 1006.7
20260903200006 82 157 4.0 7.0 0.00 0.11 0.11 69 1006.7
20260903195009 82 156 3.0 8.0 0.00 0.11 0.11 67 1006.7
20260903194506 82 179 3.0 12.0 0.00 0.11 0.11 66 1006.8
20260903194006 82 180 3.0 12.0 0.00 0.11 0.11 66 1006.8
20260903193506 82 170 2.0 9.0 0.00 0.11 0.11 66 1006.8
20260903193007 82 172 2.0 8.0 0.00 0.11 0.11 67 1006.9
20260903192506 82 162 2.0 5.0 0.00 0.11 0.11 65 1007.0
20260903192006 83 170 4.0 9.0 0.00 0.11 0.11 65 1007.1
20260903191506 83 163 3.0 6.0 0.00 0.11 0.11 64 1007.2
20260903191006 83 180 4.0 9.0 0.00 0.11 0.11 63 1007.3
20260903190506 83 160 3.0 8.0 0.00 0.11 0.11 65 1007.4
20260903190006 83 196 2.0 6.0 0.00 0.11 0.11 67 1007.3
20260903185006 83 176 2.0 6.0 0.00 0.11 0.11 65 1007.5
20260903184006 82 155 1.0 5.0 0.00 0.11 0.11 67 1007.4
20260903183506 82 163 3.0 10.0 0.00 0.11 0.11 68 1007.3
20260903183006 82 165 3.0 10.0 0.00 0.11 0.11 66 1007.4
20260903182506 82 164 2.0 6.0 0.00 0.11 0.11 65 1007.5
20260903182006 82 171 5.0 8.0 0.00 0.11 0.11 67 1007.5
20260903181006 81 106 2.0 8.0 0.00 0.11 0.11 71 1007.6
20260903180506 80 169 2.0 6.0 0.00 0.11 0.11 71 1007.9
20260903180006 81 163 3.0 5.0 0.00 0.11 0.11 70 1007.8
20260903175506 81 166 3.0 7.0 0.00 0.11 0.11 71 1007.7
20260903175006 80 176 2.0 6.0 0.00 0.11 0.11 74 1007.7
20260903174506 80 172 2.0 5.0 0.00 0.11 0.11 76 1007.7
20260903173006 80 170 2.0 6.0 0.00 0.11 0.11 73 1007.7
20260903172506 80 122 1.0 6.0 0.00 0.11 0.11 73 1007.7
20260903172006 80 159 3.0 6.0 0.00 0.11 0.11 72 1007.7
20260903171006 80 114 2.0 6.0 0.00 0.11 0.11 74 1007.5
20260903170506 79 155 3.0 5.0 0.00 0.11 0.11 76 1007.5
20260903170006 79 159 1.0 5.0 0.00 0.11 0.11 77 1007.5
20260903165506 79 159 2.0 10.0 0.00 0.11 0.11 76 1007.6
20260903165006 79 160 3.0 6.0 0.00 0.11 0.11 75 1007.7
20260903164506 79 157 3.0 9.0 0.00 0.11 0.11 77 1007.7
20260903163506 78 155 1.0 3.0 0.00 0.11 0.11 81 1007.4
20260903163006 77 155 1.0 3.0 0.00 0.11 0.11 83 1007.3
20260903162506 77 155 2.0 3.0 0.00 0.11 0.11 84 1007.2
20260903162007 76 155 1.0 6.0 0.00 0.11 0.11 85 1007.3
20260903161007 76 152 3.0 6.0 0.00 0.11 0.11 85 1007.3
20260903160506 75 146 2.0 6.0 0.00 0.11 0.11 87 1007.2
20260903155506 74 161 2.0 3.0 0.00 0.11 0.11 91 1007.3
20260903155006 74 161 1.0 5.0 0.00 0.11 0.11 92 1007.5
20260903154506 73 161 1.0 3.0 0.00 0.11 0.11 92 1007.4
20260903153506 72 161 1.0 5.0 0.00 0.11 0.11 92 1007.7
20260903152006 70 160 2.0 6.0 0.00 0.11 0.11 92 1007.8
20260903150506 70 160 2.0 6.0 0.00 0.11 0.11 92 1007.7
20260903150006 70 161 1.0 5.0 0.00 0.11 0.11 92 1007.7
20260903145506 70 170 2.0 6.0 0.00 0.11 0.11 92 1007.4
20260903145006 70 155 2.0 3.0 0.00 0.11 0.11 92 1007.4
20260903144506 70 155 1.0 3.0 0.00 0.11 0.11 92 1007.8
20260903144006 70 155 0.0 3.0 0.00 0.11 0.11 92 1007.8
20260903143506 70 155 1.0 3.0 0.00 0.11 0.11 92 1007.8
20260903143006 70 153 2.0 3.0 0.00 0.11 0.11 92 1008.1
20260903142505 70 153 2.0 6.0 0.00 0.11 0.11 92 1008.1
20260903142006 70 171 2.0 3.0 0.00 0.11 0.11 92 1008.0
20260903141506 70 175 2.0 6.0 0.00 0.11 0.11 92 1008.0
20260903141006 70 175 2.0 3.0 0.00 0.11 0.11 92 1007.7
20260903140506 70 163 0.0 2.0 0.00 0.11 0.11 92 1007.6
20260903140006 70 163 0.0 3.0 0.00 0.11 0.11 92 1007.7
20260903135506 70 165 3.0 5.0 0.00 0.11 0.11 92 1008.0
20260903135006 70 66 0.0 2.0 0.00 0.11 0.11 92 1007.6
20260903134006 69 315 1.0 3.0 0.00 0.11 0.11 92 1007.7
20260903133506 69 169 2.0 5.0 0.00 0.11 0.11 92 1007.9
20260903132506 69 165 2.0 5.0 0.00 0.11 0.11 92 1008.5
20260903132006 69 165 1.0 2.0 0.00 0.11 0.11 92 1008.8
20260903131506 69 165 0.0 2.0 0.00 0.11 0.11 92 1008.8
20260903131007 69 165 0.0 1.0 0.00 0.11 0.11 92 1008.9
20260903130506 69 165 0.0 2.0 0.00 0.11 0.11 92 1008.8
20260903130006 69 165 2.0 5.0 0.00 0.11 0.11 92 1008.7
20260903125511 69 165 1.0 5.0 0.01 0.11 0.11 92 1008.4
20260903125006 69 165 2.0 3.0 0.01 0.11 0.11 92 1008.5
20260903124506 69 163 0.0 3.0 0.02 0.11 0.11 92 1009.0
20260903123006 69 163 1.0 3.0 0.03 0.11 0.11 92 1009.2
20260903122506 69 155 2.0 3.0 0.03 0.11 0.11 92 1009.2
20260903122006 69 155 2.0 3.0 0.04 0.11 0.11 92 1009.3
20260903121506 69 132 2.0 5.0 0.05 0.11 0.11 92 1009.6
20260903121006 69 175 0.0 0.0 0.05 0.11 0.11 92 1009.5
20260903120506 69 175 0.0 0.0 0.05 0.11 0.11 92 1009.6
20260903120005 69 175 0.0 1.0 0.06 0.11 0.11 92 1009.4
20260903115505 69 175 0.0 2.0 0.05 0.10 0.10 92 1009.2
20260903114505 69 175 0.0 3.0 0.05 0.09 0.09 92 1008.7
20260903114006 69 175 1.0 3.0 0.06 0.09 0.09 92 1008.4
20260903113006 70 151 2.0 3.0 0.06 0.08 0.08 91 1008.6
20260903112505 70 150 1.0 5.0 0.07 0.08 0.08 92 1008.7
20260903112006 70 150 1.0 3.0 0.06 0.07 0.07 92 1009.2
20260903111505 70 150 0.0 3.0 0.05 0.06 0.06 91 1009.1
20260903110506 70 150 1.0 3.0 0.06 0.06 0.06 91 1009.0
20260903105505 71 150 2.0 5.0 0.05 0.05 0.05 91 1008.7
20260903105006 71 143 1.0 3.0 0.04 0.04 0.04 91 1008.8
20260903104506 71 174 2.0 6.0 0.04 0.04 0.04 91 1008.9
20260903103005 71 155 2.0 6.0 0.02 0.02 0.02 90 1008.5
20260903102006 72 174 5.0 8.0 0.01 0.01 0.01 90 1008.8
20260903101506 72 165 3.0 5.0 0.01 0.01 0.01 90 1009.0
20260903101006 72 177 1.0 3.0 0.01 0.02 0.01 91 1009.4
20260903100506 72 171 2.0 8.0 0.00 0.03 0.00 91 1009.5
20260903100006 72 175 2.0 5.0 0.00 0.03 0.00 91 1009.2
20260903095006 72 157 2.0 5.0 0.00 0.03 0.00 91 1008.4
20260903094505 72 157 2.0 3.0 0.00 0.03 0.00 91 1008.2
20260903093506 71 157 1.0 3.0 0.00 0.03 0.00 91 1007.8
20260903093006 71 157 2.0 3.0 0.00 0.03 0.00 91 1007.8
20260903092505 71 157 1.0 2.0 0.00 0.03 0.00 91 1007.6
20260903091506 71 157 2.0 3.0 0.00 0.03 0.00 91 1007.7
20260903091005 71 157 0.0 2.0 0.00 0.03 0.00 91 1007.5
20260903090506 71 157 0.0 0.0 0.00 0.03 0.00 91 1007.4
20260903090005 71 157 0.0 0.0 0.00 0.03 0.00 91 1007.3
20260903085006 71 157 0.0 0.0 0.00 0.03 0.00 90 1007.4
20260903084506 71 157 0.0 2.0 0.00 0.03 0.00 90 1007.6
20260903084006 71 157 1.0 2.0 0.00 0.03 0.00 90 1007.8
20260903083506 71 157 0.0 0.0 0.00 0.03 0.00 90 1007.5
20260903083006 71 157 0.0 0.0 0.00 0.03 0.00 90 1007.4
20260903082505 71 157 0.0 0.0 0.00 0.03 0.00 90 1007.4
20260903082006 71 157 0.0 0.0 0.00 0.03 0.00 90 1007.5
20260903081506 72 157 0.0 0.0 0.00 0.03 0.00 90 1007.6
20260903081006 72 157 0.0 0.0 0.00 0.03 0.00 90 1007.5
20260903080006 72 157 0.0 2.0 0.00 0.03 0.00 90 1007.3
20260903075506 72 157 0.0 0.0 0.00 0.03 0.00 90 1007.3
20260903075006 72 157 0.0 0.0 0.00 0.03 0.00 90 1007.2
20260903074506 72 157 0.0 0.0 0.00 0.03 0.00 90 1007.2
20260903074006 72 157 0.0 0.0 0.00 0.03 0.00 89 1007.2
20260903073506 72 157 0.0 0.0 0.00 0.03 0.00 89 1007.2
20260903073006 72 157 0.0 0.0 0.00 0.03 0.00 89 1007.3
20260903072006 72 157 0.0 0.0 0.00 0.03 0.00 89 1007.4
20260903071505 72 157 0.0 1.0 0.00 0.03 0.00 89 1007.4
20260903071006 72 157 0.0 2.0 0.00 0.03 0.00 89 1007.4
20260903070506 72 157 0.0 2.0 0.00 0.03 0.00 89 1007.4
20260903070005 72 157 0.0 2.0 0.00 0.04 0.00 89 1007.5
20260903065006 73 157 0.0 2.0 0.00 0.05 0.00 89 1007.6
20260903064505 73 157 0.0 1.0 0.00 0.06 0.00 89 1007.6
20260903064006 73 157 0.0 1.0 0.00 0.09 0.00 88 1007.6
20260903063506 73 157 0.0 0.0 0.00 0.24 0.00 88 1007.6
20260903063006 73 157 0.0 0.0 0.00 0.34 0.00 88 1007.6
20260903062505 73 157 0.0 1.0 0.00 0.34 0.00 88 1007.7
20260903062005 73 157 0.0 2.0 0.00 0.34 0.00 88 1007.8
20260903061506 73 157 0.0 2.0 0.00 0.34 0.00 88 1007.8
20260903060006 73 157 0.0 1.0 0.00 0.34 0.00 89 1007.8
20260903055505 73 157 0.0 1.0 0.00 0.34 0.00 89 1007.9
20260903055006 73 157 0.0 1.0 0.00 0.34 0.00 89 1007.9
20260903054505 73 157 0.0 1.0 0.00 0.34 0.00 89 1007.8
20260903054006 73 157 0.0 0.0 0.00 0.34 0.00 89 1007.9
20260903053006 74 157 0.0 2.0 0.00 0.34 0.00 89 1007.9
20260903052506 74 157 0.0 2.0 0.00 0.34 0.00 89 1007.9
20260903052006 74 157 0.0 1.0 0.00 0.34 0.00 88 1008.0
20260903050006 74 157 0.0 2.0 0.00 0.34 0.00 88 1008.0
20260903044505 74 157 0.0 1.0 0.00 0.34 0.34 87 1008.0
20260903044006 74 157 1.0 2.0 0.00 0.35 0.34 87 1008.0
20260903043506 75 157 0.0 0.0 0.00 0.35 0.34 87 1008.0
20260903043006 75 157 0.0 2.0 0.00 0.35 0.34 87 1008.0
20260903042505 75 157 1.0 2.0 0.00 0.35 0.34 87 1008.0
20260903042005 75 157 1.0 2.0 0.00 0.35 0.34 87 1008.0
20260903041006 75 157 1.0 2.0 0.00 0.35 0.34 86 1008.1
20260903040506 75 157 0.0 1.0 0.00 0.35 0.34 86 1008.1
20260903040008 75 157 0.0 2.0 0.00 0.35 0.34 86 1008.1
20260903035505 75 157 0.0 1.0 0.00 0.35 0.34 86 1008.1
20260903035006 75 157 0.0 1.0 0.00 0.35 0.34 86 1008.2
20260903034505 75 157 0.0 1.0 0.00 0.35 0.34 86 1008.2
20260903034006 75 157 0.0 0.0 0.00 0.35 0.34 86 1008.2
20260903033506 75 157 0.0 0.0 0.00 0.35 0.34 85 1008.3
20260903033005 75 157 0.0 0.0 0.00 0.35 0.34 85 1008.3
20260903032006 75 157 0.0 0.0 0.00 0.35 0.34 85 1008.3
20260903031506 75 157 0.0 0.0 0.00 0.35 0.34 86 1008.4
20260903031005 75 157 0.0 0.0 0.00 0.35 0.34 85 1008.4
20260903030506 75 157 0.0 0.0 0.00 0.35 0.34 85 1008.4
20260903030005 75 157 0.0 0.0 0.00 0.35 0.34 85 1008.4
20260903025506 75 157 0.0 0.0 0.00 0.35 0.34 85 1008.4
20260903025006 75 157 0.0 0.0 0.00 0.35 0.34 85 1008.4
20260903024506 75 157 0.0 0.0 0.00 0.35 0.34 85 1008.4
20260903024006 75 157 0.0 0.0 0.00 0.35 0.34 84 1008.4
20260903023506 75 157 0.0 0.0 0.00 0.35 0.34 84 1008.4
20260903023006 75 157 0.0 0.0 0.00 0.35 0.34 84 1008.4
20260903022006 76 157 0.0 0.0 0.00 0.35 0.34 84 1008.2
20260903021505 76 157 0.0 0.0 0.00 0.35 0.34 84 1008.2
20260903021006 76 157 0.0 0.0 0.00 0.35 0.34 83 1008.2
20260903020506 76 157 0.0 0.0 0.00 0.35 0.34 83 1008.1
20260903020007 76 157 0.0 0.0 0.00 0.35 0.34 82 1008.1